Regional Weather Roundup
Issued by NWS Upton, NY

Current Version | Previous Version | Graphics & Text | Print | Product List | Glossary Off
Versions: 1 2 3 4 5 6 7 8 9 10 11 12 13 14 15 16 17 18 19 20 21 22 23 24 25 26 27 28 29 30 31 32 33 34 35 36 37 38 39 40 41 42 43 44 45 46 47 48 49 50

323
ASUS41 KOKX 232108
RWROKX

REGIONAL WEATHER ROUNDUP
NATIONAL WEATHER SERVICE NEW YORK NY
400 PM EST THU NOV 23 2017

NOTE: "FAIR" INDICATES FEW OR NO CLOUDS BELOW 12,000 FEET WITH NO
SIGNIFICANT WEATHER AND/OR OBSTRUCTIONS TO VISIBILITY.

NYZ071-072-176-178-NJZ106-104-232200-
NEW YORK CITY METRO AREA

CITY           SKY/WX    TMP DP  RH WIND       PRES   REMARKS
Central Park   CLEAR     42  17  36 VRB3      30.03F
Bronx Bot Gard NOT AVBL
Bronx Lehman C   N/A     43  32  65 W2          N/A
LaGuardia APRT PTCLDY    44  18  35 W7        30.01S
Queens College NOT AVBL
Kennedy INTL   PTCLDY    41  20  43 SW9       30.03S
Breezy Point   NOT AVBL
Brooklyn Coll  NOT AVBL
Staten Island    N/A     43  32  65 W6          N/A
Newark/Liberty PTCLDY    43  18  36 W6        30.02S
Teterboro      CLEAR     43  18  36 SW3       30.01S
$$

NYZ177-179-078>081-232200-
LONG ISLAND NEW YORK

CITY           SKY/WX    TMP DP  RH WIND       PRES   REMARKS
Jones Beach    NOT AVBL
Wantagh        NOT AVBL
Matinecock PT  NOT AVBL
Farmingdale    CLEAR     41  18  39 VRB5      30.02S
MacArthur/ISP  PTCLDY    40  20  44 NW6       30.01S
Shirley        CLEAR     40  23  50 W5        30.02S
Mt Sinai Harb  NOT AVBL
Westhampton    CLEAR     39  21  48 NW3       30.02S
East Hampton   FAIR      38  22  53 W3        30.00S
Southold         N/A     41  32  70 W3          N/A
Montauk          N/A     41  25  53 NW5       30.01S
$$

NYZ052-065-067-232200-
HUDSON VALLEY

CITY           SKY/WX    TMP DP  RH WIND       PRES   REMARKS
White Plains   CLEAR     39  15  37 W3        29.99S
Larchmont Harb NOT AVBL
Croton On Huds NOT AVBL
Somers         NOT AVBL
Brewster         N/A     37  32  81 N5          N/A  WCI  34
Newburgh       PTCLDY    41  21  45 W6        29.99F
Montgomery     CLOUDY    40  20  44 SW6       29.98R
Suffern          N/A     39  32  75 W5          N/A
Poughkeepsie   CLEAR     40  16  37 CALM      29.99F
Albany         MOCLDY    36  20  52 NW8       30.01F WCI  30
$$

NJZ001-105-106-008-010-013-015-019>022-104-232200-
NEW JERSEY

CITY           SKY/WX    TMP DP  RH WIND       PRES   REMARKS
Newark/Liberty PTCLDY    43  18  36 W6        30.02S
Teterboro      CLEAR     43  18  36 SW3       30.01S
Caldwell       CLEAR     42  18  37 VRB3      30.02S
Somerville     CLEAR     41  20  43 CALM      30.01S
Linden         FAIR      42  18  37 NW7       30.02S
Perth Amboy    NOT AVBL
Sussex         CLEAR     40  18  41 W5        30.00S
Andover          N/A     41  18  39 CALM      30.00S
Trenton        CLEAR     40  19  43 W7        30.03F
Millville      CLEAR     41  23  48 W6        30.06S
Atlantic City  CLEAR     42  21  43 W7        30.05F
Wrightstown    CLEAR     39  19  44 W7        30.02S WCI  34
Toms River     CLEAR     40  21  46 W5        30.05S
Belmar         CLEAR     40  21  46 W5        30.04S
$$

PAZ047>061-062-071-232200-
EASTERN PENNSYLVANIA

CITY           SKY/WX    TMP DP  RH WIND       PRES   REMARKS
Philadelphia   PTCLDY    42  18  37 CALM      30.05F
Allentown      CLEAR     40  18  41 W8        30.02S WCI  34
Scranton       CLOUDY    35  20  54 CALM      30.01R
$$

CTZ002-004>006-009-010-012-RIZ004-006-007-MAZ004-011-015-232200-
SOUTHERN NEW ENGLAND
 IN CT

CITY           SKY/WX    TMP DP  RH WIND       PRES   REMARKS
Bradley INTL   CLEAR     41  16  36 CALM      29.98F
Hartford       CLEAR     41  18  39 W7        30.00R
Danbury        CLEAR     40  16  37 NW3       30.00S
Wtrbury/Oxford CLEAR     38  16  40 NW3       29.98S
Norwalk Harbor NOT AVBL
Bridgeport     CLEAR     43  16  33 NW6       30.01R
Meriden        CLEAR     41  18  39 W5        30.00R
New Haven      CLEAR     42  15  33 VRB6      30.00S
Chester        FAIR      41  16  36 NW3       29.98S
Groton         CLEAR     41  21  44 W5        29.98F
Wilimantic     CLEAR     42  18  37 CALM      29.99S

 IN RI

CITY           SKY/WX    TMP DP  RH WIND       PRES   REMARKS
Providence     PTCLDY    42  18  37 NW5       29.98F
Block Island   CLEAR     39  26  59 W6        30.00R WCI  35
Westerly       CLEAR     43  21  41 CALM      29.99S
 IN MA

CITY           SKY/WX    TMP DP  RH WIND       PRES   REMARKS
Boston         PTCLDY    42  16  34 W7        29.97S
Worcester      CLEAR     36  14  40 W6        29.94S WCI  31
Westfield      PTCLDY    39  17  41 NW9       29.98R WCI  33
Provincetown   CLEAR     38  22  52 W3        29.98F
Nantucket      CLEAR     38  29  70 W6        29.99R WCI  33
$$

ANZ330-335-338-340-345-350-353-355-232200-
COASTAL MARINE OBSERVATIONS


STATION/POSITION TIME  SKY/WX   TEMP    WIND        PRES    VSBY  WAVE
                                AIR SEA DIR/SP/G                  HT/PER
                 (UTC)          (F)     (DEG/KT/KT) (MB)    (MI)  (FT/S)
NY HARB ENTRANCE 1950            40 55  270/  8/ 10 1016.7          3/10
20 S FIRE ISLAND 2050            40 56  280/  8/ 12 1017.1          4/10
GREAT SOUTH BAY  2030            41 46  270/  8/  8   N/A
HUDSON CANYON    2050            43 58  290/ 10/ 12 1016.4          4/11
KINGS POINT      2030            44 49   CALM  /  1 1017.2
EXECUTION ROCKS  2030            47     210/  4/  8   N/A
WESTERN LI SOUND 1949            44     260/  6/ 12   N/A           0
CENTRAL LI SOUND NOT AVBL
ROBBINS REEF     2048            42     260/  5/  9 1017.0
$$


>>>>>>>>>>>>>>>>>>>>>>>>>>>> KEY <<<<<<<<<<<<<<<<<<<<<<<<<<<
>                                                          <
>     SKY/WX - Sky Condition/Present Weather               <
>     TMP    - Temperature in Fahrenheit                   <
>     DP     - Dew Point in Fahrenheit                     <
>     RH     - Relative Humidity in Percent                <
>     WIND   - Direction (from) and Speed in MPH           <
>     PRES   - Mean Sea Level Pressure (inches of Hg)      <
>     WCI    - Wind Chill Index                            <
>     VSB    - VISIBILITY IN MILES                         <
>     HX     - HEAT INDEX                                  <
>     TC     - TEMPERATURE IN CELSIUS                      <
>     VRB    - VARIABLE WIND DIRECTION                     <
>                                                          <
>>>>>>>>>>>>>>>>>>>>>>>>>>>> KEY <<<<<<<<<<<<<<<<<<<<<<<<<<<




USA.gov is the U.S. government's official web portal to all federal, state and local government web resources and services.